AJ5TT Weather Reports


time (UTC)temp
F
wind
direction
speed
knots
gust
knots
rain 1hr
in
rain 24hr
in
rain mn
in
humidity
%
barometer
mb
20260505190113 79 233 2.6 7.0 0.00 0.00 0.00 84 1010.2
20260505184605 80 209 3.5 8.7 0.00 0.00 0.00 82 1010.2
20260505183055 80 205 3.5 11.3 0.00 0.00 0.00 83 1010.4
20260505181558 79 184 3.5 7.8 0.00 0.00 0.00 84 1010.5
20260505180057 79 80 2.6 10.4 0.00 0.00 0.00 82 1010.6
20260505174604 80 213 3.5 8.7 0.00 0.00 0.00 81 1010.7
20260505173103 79 218 3.5 7.8 0.00 0.00 0.00 82 1010.9
20260505171600 78 184 3.5 9.6 0.00 0.00 0.00 83 1011.0
20260505170108 78 217 4.3 9.6 0.00 0.00 0.00 84 1011.1
20260505164558 79 194 2.6 7.0 0.00 0.00 0.00 82 1011.0
20260505163107 79 180 3.5 8.7 0.00 0.00 0.00 81 1010.9
20260505161556 79 207 3.5 8.7 0.00 0.00 0.00 81 1010.9
20260505160104 78 197 2.6 9.6 0.00 0.00 0.00 83 1010.8
20260505153108 79 212 3.5 8.7 0.00 0.00 0.00 80 1010.6
20260505151559 79 215 7.0 14.8 0.00 0.00 0.00 80 1010.3
20260505150113 79 243 4.3 11.3 0.00 0.00 0.00 81 1010.3
20260505140124 76 181 1.7 6.1 0.00 0.00 0.00 86 1010.6
20260505124606 74 157 1.7 6.1 0.00 0.00 0.00 88 1010.1
20260505123112 74 142 2.6 7.0 0.00 0.00 0.00 88 1010.0
20260505121555 74 132 1.7 6.1 0.00 0.00 0.00 88 1010.0
20260505120059 73 204 0.9 3.5 0.00 0.00 0.00 88 1010.2
20260505114605 73 205 1.7 4.3 0.00 0.00 0.00 88 1010.0
20260505113058 73 169 0.9 3.5 0.00 0.00 0.00 88 1009.7
20260505111601 73 217 0.9 4.3 0.00 0.00 0.00 88 1010.1
20260505101553 73 180 1.7 5.2 0.00 0.00 0.00 87 1010.0
20260505100104 73 200 0.9 4.3 0.00 0.00 0.00 87 1009.9
20260505094607 73 183 1.7 3.5 0.00 0.00 0.00 87 1010.0
20260505093056 73 221 0.9 3.5 0.00 0.00 0.00 87 1010.2
20260505091556 73 192 0.9 4.3 0.00 0.00 0.00 87 1010.1
20260505090110 73 215 2.6 6.1 0.00 0.00 0.00 87 1010.3
20260505084555 73 144 2.6 6.1 0.00 0.00 0.00 86 1010.1
20260505083107 73 213 1.7 9.6 0.00 0.00 0.00 85 1010.1
20260505081558 73 200 2.6 6.1 0.00 0.00 0.00 85 1010.2
20260505080056 73 226 1.7 5.2 0.00 0.00 0.00 85 1010.4
20260505074558 73 215 1.7 4.3 0.00 0.00 0.00 85 1010.4
20260505073100 72 193 1.7 7.0 0.00 0.00 0.00 85 1010.6
20260505071557 72 136 0.9 5.2 0.00 0.00 0.00 84 1010.8
20260505070056 72 198 1.7 5.2 0.00 0.00 0.00 84 1010.9
20260505064552 72 194 2.6 5.2 0.00 0.00 0.00 84 1011.2
20260505063059 72 192 2.6 7.0 0.00 0.00 0.00 85 1011.5
20260505061550 71 182 1.7 5.2 0.00 0.00 0.00 85 1011.4
20260505060058 71 203 0.9 7.0 0.00 0.00 0.00 84 1011.4
20260505054600 71 176 0.9 3.5 0.00 0.00 0.00 84 1011.6
20260505053055 71 196 0.9 3.5 0.00 0.00 0.00 84 1011.6
20260505051550 71 200 0.9 3.5 0.00 0.00 0.00 85 1011.7
20260505050126 70 195 0.9 3.5 0.00 0.00 0.00 85 1011.6
20260505041605 70 168 0.9 2.6 0.00 0.00 0.00 84 1012.1
20260505040100 70 167 0.9 2.6 0.00 0.00 0.00 83 1012.2
20260505034553 70 132 0.9 1.7 0.00 0.00 0.00 82 1012.3
20260505033052 70 121 0.9 1.7 0.00 0.00 0.00 82 1012.2
20260505031554 71 146 0.0 1.7 0.00 0.00 0.00 81 1012.3
20260505030104 71 171 0.9 2.6 0.00 0.00 0.00 80 1012.2
20260505024559 71 198 0.9 2.6 0.00 0.00 0.00 80 1012.4
20260505023056 71 192 0.9 3.5 0.00 0.00 0.00 79 1012.3
20260505021601 72 161 0.9 2.6 0.00 0.00 0.00 78 1012.2
20260505020058 72 199 0.9 4.3 0.00 0.00 0.00 77 1012.2
20260505014618 73 148 0.9 4.3 0.00 0.00 0.00 76 1012.1
20260505013058 73 195 1.7 5.2 0.00 0.00 0.00 75 1012.1
20260505011605 73 193 0.9 4.3 0.00 0.00 0.00 75 1012.1
20260505010056 74 201 1.7 5.2 0.00 0.00 0.00 74 1012.1
20260505004557 74 189 2.6 6.1 0.00 0.00 0.00 73 1011.8
20260505003053 74 131 2.6 8.7 0.00 0.00 0.00 72 1011.7
20260505001614 75 209 2.6 7.0 0.00 0.00 0.00 70 1011.7
20260505000135 76 178 2.6 15.6 0.00 0.00 0.00 69 1012.0
20260504234612 76 168 3.5 7.8 0.00 0.00 0.00 68 1011.9
20260504233105 77 257 3.5 8.7 0.00 0.00 0.00 67 1012.1
20260504231558 78 174 2.6 8.7 0.00 0.00 0.00 67 1012.4
20260504230057 77 238 4.3 9.6 0.00 0.00 0.00 68 1012.5
20260504224610 77 197 4.3 9.6 0.00 0.00 0.00 67 1012.6
20260504223058 77 173 2.6 11.3 0.00 0.00 0.00 67 1012.9
20260504221557 76 213 2.6 7.0 0.00 0.00 0.00 67 1013.1
20260504220100 76 206 3.5 7.0 0.00 0.00 0.00 67 1013.3
20260504214600 77 191 1.7 9.6 0.00 0.00 0.00 67 1013.4
20260504213126 77 187 4.3 10.4 0.00 0.00 0.00 64 1013.5
20260504211556 78 119 3.5 8.7 0.00 0.00 0.00 63 1013.4
20260504210055 78 61 3.5 8.7 0.00 0.00 0.00 63 1013.7
20260504204554 78 213 5.2 9.6 0.00 0.00 0.00 63 1013.8
20260504203112 79 181 3.5 11.3 0.00 0.00 0.00 62 1013.9
20260504201554 79 148 3.5 9.6 0.00 0.00 0.00 62 1014.3
20260504200052 79 216 2.6 6.1 0.00 0.00 0.00 61 1014.3
20260504194602 80 195 3.5 7.0 0.00 0.00 0.00 61 1014.4
20260504193109 81 86 1.7 7.8 0.00 0.00 0.00 60 1014.8
20260504191554 79 254 2.6 10.4 0.00 0.00 0.00 61 1014.8